Location: Gwatt
(46.7204°N, 7.6223°E)
Time: 14:41:38
(UTC+00:00)

Altair - All Passes

Search period start: 23 January 2021 00:00
Search period end: 02 February 2021 00:00
Orbit: 1501 x 1682 km, 47.2° (Epoch: 22 January)

Date Brightness Start Highest point End Pass type
(mag) Time Alt. Az. Time Alt. Az. Time Alt. Az.
23 Jan - 03:25:48 10° S 03:34:00 30° SE 03:42:21 10° ENE visible
23 Jan - 05:27:42 10° SW 05:37:41 70° SSE 05:47:46 10° ENE visible
23 Jan - 07:32:22 10° W 07:42:37 87° N 07:52:47 10° E daylight
23 Jan - 09:37:28 10° WNW 09:47:39 76° SSW 09:57:36 10° ESE daylight
23 Jan - 11:42:44 10° WNW 11:51:34 36° SW 12:00:11 10° SSE daylight
24 Jan - 03:01:01 10° S 03:08:56 28° SE 03:16:58 10° ENE visible
24 Jan - 05:02:35 10° SW 05:12:29 67° SSE 05:22:33 10° ENE visible
24 Jan - 07:07:08 10° W 07:17:22 87° N 07:27:34 10° E daylight
24 Jan - 09:12:14 10° WNW 09:22:27 79° SSW 09:32:27 10° ESE daylight
24 Jan - 11:17:26 10° WNW 11:26:28 39° SW 11:35:18 10° SSE daylight
25 Jan - 02:36:18 10° S 02:43:52 26° SE 02:51:34 10° E visible
25 Jan - 04:37:29 10° SW 04:47:19 64° SSE 04:57:19 10° ENE visible
25 Jan - 06:41:54 10° W 06:52:07 88° N 07:02:20 10° E daylight
25 Jan - 08:47:01 10° WNW 08:57:13 81° SSW 09:07:17 10° ESE daylight
25 Jan - 10:52:09 10° WNW 11:01:21 42° SW 11:10:23 10° SSE daylight
25 Jan - 13:01:30 10° WSW 13:03:56 11° WSW 13:06:21 10° SW daylight
26 Jan - 02:11:37 10° S 02:18:50 23° SE 02:26:09 10° E visible
26 Jan - 04:12:24 10° SW 04:22:09 61° SSE 04:32:05 10° ENE visible
26 Jan - 06:16:41 10° W 06:26:52 89° N 06:37:06 10° E visible
26 Jan - 08:21:47 10° WNW 08:32:00 83° SSW 08:42:06 10° ESE daylight
26 Jan - 10:26:52 10° WNW 10:36:15 44° SW 10:45:26 10° SSE daylight
26 Jan - 12:35:04 10° W 12:38:56 13° WSW 12:42:47 10° SW daylight
27 Jan - 01:47:01 10° S 01:53:47 21° SE 02:00:40 10° E visible
27 Jan - 03:47:20 10° SW 03:56:59 58° SSE 04:06:51 10° ENE visible
27 Jan - 05:51:29 10° W 06:01:37 90° N 06:11:52 10° E visible
27 Jan - 07:56:34 10° WNW 08:06:47 85° SSW 08:16:55 10° ESE daylight
27 Jan - 10:01:36 10° WNW 10:11:07 47° SW 10:20:28 10° SSE daylight
27 Jan - 12:09:05 10° W 12:13:56 15° WSW 12:18:44 10° SSW daylight
28 Jan - 01:22:28 10° SSE 01:28:46 19° SE 01:35:08 10° E visible
28 Jan - 03:22:17 10° SW 03:31:50 55° SE 03:41:36 10° ENE visible
28 Jan - 05:26:16 10° WSW 05:36:23 89° SSE 05:46:38 10° E visible
28 Jan - 07:31:20 10° W 07:41:33 87° SSW 07:51:43 10° ESE daylight
28 Jan - 09:36:21 10° WNW 09:45:59 50° SW 09:55:28 10° SE daylight
28 Jan - 11:43:19 10° W 11:48:55 17° SW 11:54:29 10° SSW daylight
29 Jan - 00:58:02 10° SSE 01:03:44 17° SE 01:09:31 10° E visible
29 Jan - 02:57:16 10° SW 03:06:41 51° SE 03:16:22 10° ENE visible
29 Jan - 05:01:04 10° WSW 05:11:09 87° SSE 05:21:23 10° E visible
29 Jan - 07:06:06 10° W 07:16:19 88° S 07:26:30 10° ESE daylight
29 Jan - 09:11:06 10° WNW 09:20:51 53° SW 09:30:26 10° SE daylight
29 Jan - 11:17:40 10° W 11:23:54 19° SW 11:30:04 10° SSW daylight
30 Jan - 00:33:44 10° SSE 00:38:43 15° ESE 00:43:48 10° E visible
30 Jan - 02:32:16 10° SSW 02:41:34 48° SE 02:51:06 10° ENE visible
30 Jan - 04:35:52 10° WSW 04:45:55 86° SSE 04:56:10 10° E visible
30 Jan - 06:40:53 10° W 06:51:05 90° S 07:01:16 10° ESE daylight
30 Jan - 08:45:52 10° WNW 08:55:41 56° SSW 09:05:24 10° SE daylight
30 Jan - 10:52:07 10° W 10:58:52 21° SW 11:05:33 10° S daylight
31 Jan - 00:09:36 10° SSE 00:13:44 13° ESE 00:17:53 10° E visible
31 Jan - 02:07:18 10° SSW 02:16:26 45° SE 02:25:50 10° ENE visible
31 Jan - 04:10:41 10° WSW 04:20:42 84° SSE 04:30:56 10° ENE visible
31 Jan - 06:15:39 10° W 06:25:50 89° N 06:36:04 10° E visible
31 Jan - 08:20:38 10° WNW 08:30:32 59° SSW 08:40:20 10° SE daylight
31 Jan - 10:26:37 10° W 10:33:50 23° SW 10:40:58 10° S daylight
31 Jan - 23:45:51 10° SE 23:48:45 12° ESE 23:51:39 10° ESE visible
01 Feb - 01:42:21 10° SSW 01:51:20 42° SE 02:00:34 10° ENE visible
01 Feb - 03:45:30 10° WSW 03:55:28 82° SSE 04:05:41 10° ENE visible
01 Feb - 05:50:26 10° W 06:00:35 88° N 06:10:50 10° E visible
01 Feb - 07:55:24 10° WNW 08:05:22 63° SSW 08:15:14 10° SE daylight
01 Feb - 10:01:11 10° W 10:08:47 25° SW 10:16:18 10° S daylight
